Location: Hains Lake
(37.8540°N, 99.8578°W)
Time: 21:40:16
(UTC+00:00)

ISS - Pass Details

Date: 12 March 2021
Orbit: 418 x 422 km, 51.6° (Epoch: 16 April)

Event Time Altitude Azimuth Distance (km) Brightness Sun altitude
Exits shadow 11:00:43 43° 42° (NE) 597 -2.7 -23.1°
Drops below altitude 10° 11:03:48 10° 109° (ESE) 1,491 -0.2 -22.5°
Sets 11:05:57 0° 116° (ESE) 2,351 0.8 -22.1°
